When you browse on this site, cookies collect data to enhance your experience and personalize the content and advertising you see.
Visit our Privacy Policy to learn more. By continuing to use the site, you agree to this use of cookies and data.
  • In Austria
  • List of Countries
  • For 7 days
  • Water Temperature
  • Weather Map
  • News
  • Weather Widgets
  • user-avatar
    Login

    Hourly Weather Braga

    Today, 4 April, Saturday

    Time Temperature Precipitation Wind Pressure Humidity
    00:00 +10°C° 0 mm 2 mps 749 mmHg 70%
    01:00 +10°C° 0 mm 2 mps 748 mmHg 69%
    02:00 +10°C° 0 mm 2 mps 748 mmHg 69%
    03:00 +10°C° 0 mm 2 mps 748 mmHg 70%
    04:00 +10°C° 0 mm 2 mps 748 mmHg 71%
    05:00 +10°C° 0 mm 3 mps 747 mmHg 71%
    06:00 +12°C° 0 mm 3 mps 747 mmHg 67%
    07:00 +14°C° 0 mm 3 mps 747 mmHg 63%
    08:00 +17°C° 0 mm 3 mps 747 mmHg 59%
    09:00 +18°C° 0 mm 4 mps 747 mmHg 56%
    10:00 +19°C° 0 mm 5 mps 747 mmHg 53%
    11:00 +20°C° 0 mm 5 mps 747 mmHg 50%
    12:00 +20°C° 0 mm 5 mps 747 mmHg 49%
    13:00 +20°C° 0 mm 5 mps 746 mmHg 49%
    14:00 +20°C° 0 mm 5 mps 746 mmHg 48%
    15:00 +19°C° 0 mm 4 mps 746 mmHg 52%
    16:00 +18°C° 0 mm 4 mps 746 mmHg 56%
    17:00 +18°C° 0 mm 3 mps 746 mmHg 61%
    18:00 +17°C° 0 mm 4 mps 746 mmHg 62%
    19:00 +17°C° 0 mm 4 mps 746 mmHg 63%
    20:00 +15°C° 0 mm 4 mps 747 mmHg 64%
    21:00 +15°C° 0 mm 4 mps 747 mmHg 67%
    22:00 +14°C° 0 mm 4 mps 746 mmHg 69%
    23:00 +14°C° 0 mm 4 mps 746 mmHg 72%

    Tomorrow, 5 April, Sunday

    Time Temperature Precipitation Wind Pressure Humidity
    00:00 +13°C° 0.4 mm 3 mps 746 mmHg 77%
    01:00 +13°C° 0.4 mm 3 mps 746 mmHg 82%
    02:00 +13°C° 0.4 mm 3 mps 745 mmHg 87%
    03:00 +13°C° 0.4 mm 3 mps 745 mmHg 88%
    04:00 +13°C° 0.4 mm 3 mps 745 mmHg 89%
    05:00 +13°C° 0.4 mm 4 mps 745 mmHg 89%
    06:00 +13°C° 0.4 mm 4 mps 746 mmHg 89%
    07:00 +14°C° 0.4 mm 4 mps 746 mmHg 89%
    08:00 +14°C° 0.4 mm 4 mps 746 mmHg 88%
    09:00 +14°C° 0.6 mm 4 mps 746 mmHg 89%
    10:00 +15°C° 0.6 mm 4 mps 747 mmHg 89%
    11:00 +15°C° 0.6 mm 5 mps 747 mmHg 90%
    12:00 +15°C° 1.4 mm 4 mps 747 mmHg 91%
    13:00 +15°C° 1.4 mm 4 mps 747 mmHg 91%
    14:00 +15°C° 1.4 mm 4 mps 747 mmHg 92%
    15:00 +14°C° 1 mm 3 mps 747 mmHg 93%
    16:00 +14°C° 1 mm 3 mps 747 mmHg 94%
    17:00 +15°C° 1 mm 2 mps 747 mmHg 94%
    18:00 +15°C° 0.8 mm 1 mps 748 mmHg 95%
    19:00 +14°C° 0.8 mm 1 mps 748 mmHg 95%
    20:00 +14°C° 0.8 mm 1 mps 749 mmHg 96%
    21:00 +13°C° 0.1 mm 1 mps 749 mmHg 96%
    22:00 +12°C° 0.1 mm 0 mps 749 mmHg 96%
    23:00 +11°C° 0.1 mm 0 mps 750 mmHg 96%

    Day after tomorrow, 6 April, Monday

    Time Temperature Precipitation Wind Pressure Humidity
    00:00 +11°C° 0 mm 0 mps 750 mmHg 96%
    01:00 +11°C° 0 mm 0 mps 750 mmHg 96%
    02:00 +11°C° 0 mm 0 mps 751 mmHg 96%
    03:00 +10°C° 0 mm 0 mps 751 mmHg 96%
    04:00 +10°C° 0 mm 0 mps 751 mmHg 96%
    05:00 +10°C° 0 mm 0 mps 752 mmHg 96%
    06:00 +12°C° 0 mm 0 mps 752 mmHg 91%
    07:00 +13°C° 0 mm 0 mps 753 mmHg 86%
    08:00 +15°C° 0 mm 0 mps 753 mmHg 81%
    09:00 +18°C° 0 mm 1 mps 754 mmHg 73%
    10:00 +19°C° 0 mm 1 mps 754 mmHg 65%
    11:00 +19°C° 0 mm 2 mps 754 mmHg 57%
    12:00 +19°C° 0.1 mm 2 mps 754 mmHg 56%
    13:00 +19°C° 0.1 mm 2 mps 754 mmHg 56%
    14:00 +19°C° 0.1 mm 2 mps 754 mmHg 56%
    15:00 +18°C° 0 mm 2 mps 754 mmHg 60%
    16:00 +17°C° 0 mm 2 mps 754 mmHg 64%
    17:00 +17°C° 0 mm 2 mps 754 mmHg 69%
    18:00 +15°C° 0 mm 1 mps 755 mmHg 74%
    19:00 +13°C° 0 mm 1 mps 755 mmHg 80%
    20:00 +11°C° 0 mm 0 mps 756 mmHg 86%
    21:00 +12°C° 0 mm 1 mps 756 mmHg 86%
    22:00 +11°C° 0 mm 1 mps 756 mmHg 86%
    23:00 +11°C° 0 mm 1 mps 756 mmHg 87%

    7 April, Tuesday

    Time Temperature Precipitation Wind Pressure Humidity
    00:00 +11°C° 0 mm 1 mps 756 mmHg 86%
    01:00 +11°C° 0 mm 1 mps 756 mmHg 86%
    02:00 +11°C° 0 mm 1 mps 756 mmHg 85%
    03:00 +11°C° 0 mm 1 mps 756 mmHg 84%
    04:00 +11°C° 0 mm 1 mps 756 mmHg 83%
    05:00 +11°C° 0 mm 1 mps 756 mmHg 82%
    06:00 +13°C° 0 mm 1 mps 756 mmHg 75%
    07:00 +15°C° 0 mm 1 mps 756 mmHg 67%
    08:00 +19°C° 0 mm 1 mps 756 mmHg 60%
    09:00 +20°C° 0 mm 1 mps 756 mmHg 55%
    10:00 +22°C° 0 mm 1 mps 756 mmHg 50%
    11:00 +24°C° 0 mm 1 mps 756 mmHg 45%
    12:00 +24°C° 0 mm 1 mps 756 mmHg 45%
    13:00 +24°C° 0 mm 2 mps 755 mmHg 46%
    14:00 +24°C° 0 mm 2 mps 755 mmHg 46%
    15:00 +23°C° 0 mm 1 mps 755 mmHg 53%
    16:00 +21°C° 0 mm 1 mps 755 mmHg 59%
    17:00 +20°C° 0 mm 1 mps 755 mmHg 66%
    18:00 +17°C° 0 mm 0 mps 755 mmHg 68%
    19:00 +15°C° 0 mm 0 mps 755 mmHg 71%
    20:00 +14°C° 0 mm 0 mps 756 mmHg 74%
    21:00 +15°C° 0 mm 1 mps 756 mmHg 74%
    22:00 +14°C° 0 mm 1 mps 756 mmHg 75%
    23:00 +14°C° 0 mm 1 mps 756 mmHg 75%

    8 April, Wednesday

    Time Temperature Precipitation Wind Pressure Humidity
    00:00 +14°C° 0 mm 1 mps 755 mmHg 75%
    01:00 +14°C° 0 mm 1 mps 755 mmHg 75%
    02:00 +14°C° 0 mm 2 mps 755 mmHg 75%
    03:00 +14°C° 0 mm 1 mps 755 mmHg 74%
    04:00 +15°C° 0 mm 1 mps 754 mmHg 74%
    05:00 +15°C° 0 mm 1 mps 754 mmHg 73%
    06:00 +16°C° 0 mm 1 mps 754 mmHg 71%
    07:00 +18°C° 0 mm 1 mps 754 mmHg 70%
    08:00 +19°C° 0 mm 1 mps 754 mmHg 68%
    09:00 +19°C° 0 mm 1 mps 754 mmHg 70%
    10:00 +19°C° 0 mm 1 mps 754 mmHg 72%
    11:00 +19°C° 0 mm 1 mps 755 mmHg 75%
    12:00 +18°C° 0.4 mm 1 mps 754 mmHg 80%
    13:00 +16°C° 0.4 mm 1 mps 754 mmHg 86%
    14:00 +16°C° 0.4 mm 1 mps 754 mmHg 92%
    15:00 +16°C° 0.2 mm 1 mps 754 mmHg 92%
    16:00 +16°C° 0.2 mm 1 mps 754 mmHg 92%
    17:00 +16°C° 0.2 mm 1 mps 754 mmHg 92%
    18:00 +16°C° 0 mm 1 mps 754 mmHg 92%
    19:00 +16°C° 0 mm 1 mps 754 mmHg 91%
    20:00 +15°C° 0 mm 1 mps 754 mmHg 91%
    21:00 +15°C° 0 mm 1 mps 754 mmHg 91%
    22:00 +15°C° 0 mm 1 mps 754 mmHg 91%
    23:00 +15°C° 0 mm 1 mps 753 mmHg 91%

    9 April, Thursday

    Time Temperature Precipitation Wind Pressure Humidity
    00:00 +15°C° 0 mm 1 mps 753 mmHg 91%
    01:00 +15°C° 0 mm 1 mps 753 mmHg 91%
    02:00 +15°C° 0 mm 1 mps 752 mmHg 91%
    03:00 +15°C° 0.7 mm 1 mps 752 mmHg 92%
    04:00 +15°C° 0.7 mm 1 mps 752 mmHg 94%
    05:00 +15°C° 0.7 mm 1 mps 752 mmHg 96%
    06:00 +15°C° 1.5 mm 1 mps 752 mmHg 96%
    07:00 +15°C° 1.5 mm 1 mps 752 mmHg 96%
    08:00 +15°C° 1.5 mm 2 mps 753 mmHg 96%
    09:00 +15°C° 1.1 mm 2 mps 753 mmHg 96%
    10:00 +15°C° 1.1 mm 1 mps 753 mmHg 95%
    11:00 +16°C° 1.1 mm 1 mps 753 mmHg 95%
    12:00 +16°C° 0.2 mm 1 mps 753 mmHg 95%
    13:00 +16°C° 0.2 mm 2 mps 753 mmHg 94%
    14:00 +16°C° 0.2 mm 2 mps 753 mmHg 94%
    15:00 +16°C° 0.1 mm 2 mps 753 mmHg 95%
    16:00 +16°C° 0.1 mm 2 mps 753 mmHg 95%
    17:00 +16°C° 0.1 mm 1 mps 752 mmHg 96%
    18:00 +15°C° 0 mm 1 mps 753 mmHg 96%
    19:00 +15°C° 0 mm 1 mps 753 mmHg 96%
    20:00 +15°C° 0 mm 1 mps 754 mmHg 97%
    21:00 +15°C° 0 mm 1 mps 754 mmHg 97%
    22:00 +15°C° 0 mm 1 mps 754 mmHg 97%
    23:00 +15°C° 0 mm 1 mps 754 mmHg 97%
    Show more